Flag for Sudan Weather past 2 weeks in Khartoum, Sudan

Now
N/A

Sunny.


Feels Like: N/A
Forecast: 83 / 106 °F
Wind: 5 mph from Northeast

Location: Khartoum Airport

Current Time: Jul 1, 2015 at 3:58:08 PM

Latest Report: Jul 1, 2015 at 3:30 PM


Visibility: 10 mi

Pressure: 29.80 "Hg

Humidity: N/A

Dew point: N/A

Location of KhartoumLocation

Historic Weather in Khartoum — Graph

°F

Khartoum temperature yesterday

Maximum temperature yesterday: 109 °F (at 4:00 PM)
Minimum temperature yesterday: 91 °F (at 2:00 AM)
Average temperature yesterday: 102 °F

Past Weeks' High & Low Weather Summary

 TemperatureHumidityPressure
High109 °F (Jun 20, 4:00 PM)52% (Jun 25, 8:00 AM)29.98 "Hg (Jun 25, 8:00 AM)
Low81 °F (Jun 18, 7:00 AM)4% (Jun 20, 4:00 PM)29.65 "Hg (Jun 17, 4:00 PM)
Average96 °F20%29.83 "Hg
* Reported Jun 16 2:00 PM — Jul 1 2:30 PM, Khartoum, Weather by CustomWeather, © 2015

Note: Actual official high and low records may vary slightly from our data, if they occured in-between our weather recording intervals... More about our weather records

Advertising

Khartoum weather history for previous 24 hours

 ConditionsComfort  
Time TempWeatherWind HumidityBarometerVisibility
2:30 PM
Wed, Jul 1
N/ASunny.9 mphN/A29.83 "Hg10 mi
2:00 PM104 °FSunny.6 mph14%29.83 "Hg10 mi
1:30 PMN/ASunny.7 mphN/A29.86 "Hg10 mi
1:00 PM102 °FSunny.8 mph16%29.86 "Hg10 mi
12:30 PMN/ASunny.9 mphN/A29.86 "Hg10 mi
12:00 PM100 °FSunny.10 mph21%29.86 "Hg10 mi
11:30 AMN/A9 mphN/AN/AN/A
11:00 AM99 °FSunny.8 mph21%29.89 "Hg10 mi
10:30 AMN/ASunny.9 mphN/A29.89 "Hg10 mi
10:00 AM95 °FSunny.10 mph30%29.89 "Hg10 mi
9:30 AMN/ASunny.13 mphN/A29.89 "Hg10 mi
9:00 AM91 °FSunny.14 mph36%29.89 "Hg10 mi
8:30 AMN/ASunny.12 mphN/A29.86 "Hg10 mi
8:00 AM90 °FSunny.8 mph36%29.86 "Hg10 mi
7:30 AMN/ASunny.8 mphN/A29.86 "Hg10 mi
6:00 AM90 °FClear.6 mph41%29.83 "Hg10 mi
5:30 AMN/AClear.6 mphN/A29.83 "Hg10 mi
5:00 AM90 °FClear.6 mph41%29.83 "Hg10 mi
4:30 AMN/AClear.9 mphN/A29.83 "Hg10 mi
4:00 AM90 °FClear.9 mph41%29.83 "Hg10 mi
3:30 AMN/AClear.9 mphN/A29.83 "Hg10 mi
2:00 AMN/AClear.7 mphN/A29.80 "Hg10 mi
1:30 AMN/AClear.3 mphN/A29.80 "Hg10 mi
12:30 AMN/AClear.6 mphN/A29.80 "Hg10 mi
10:00 PM
Tue, Jun 30
100 °FClear.8 mph8%29.77 "Hg10 mi
9:30 PMN/AClear.8 mphN/A29.77 "Hg10 mi
9:00 PM102 °FClear.8 mph6%29.77 "Hg10 mi
8:00 PM104 °FClear.9 mph8%29.74 "Hg10 mi
7:30 PMN/AClear.12 mphN/A29.74 "Hg10 mi
7:00 PM106 °FSunny.12 mph7%29.74 "Hg10 mi
6:00 PM108 °FExtremely hot.13 mph8%29.71 "HgN/A
5:00 PM109 °FExtremely hot.9 mph7%29.71 "HgN/A
4:00 PM109 °FExtremely hot.9 mph7%29.74 "HgN/A
3:00 PM108 °FSunny.6 mph8%29.77 "Hg10 mi
Weather by CustomWeather, © 2015

See weather overviewHow to use our weather pages